• In Kazakhstan
  • List of Countries
  • For 7 days
  • Water Temperature
  • Satellite Maps
  • Weather Map
  • News
  • Weather Widgets
  • user-avatar
    Login

    Hourly Weather Canillo

    Today, 21 January, Monday

    Time Temperature Precipitation Wind Pressure Humidity
    00:00 -5°C° 0.1 mm 2 mps 612 mmHg 91%
    01:00 -6°C° 0.2 mm 2 mps 612 mmHg 90%
    02:00 -6°C° 0.2 mm 2 mps 612 mmHg 90%
    03:00 -6°C° 0.2 mm 2 mps 612 mmHg 90%
    04:00 -6°C° 0.2 mm 2 mps 612 mmHg 90%
    05:00 -6°C° 0.2 mm 2 mps 612 mmHg 90%
    06:00 -6°C° 0.2 mm 2 mps 612 mmHg 89%
    07:00 -6°C° 0.2 mm 2 mps 613 mmHg 86%
    08:00 -6°C° 0.2 mm 3 mps 613 mmHg 84%
    09:00 -6°C° 0.2 mm 3 mps 614 mmHg 81%
    10:00 -5°C° 0.1 mm 3 mps 614 mmHg 77%
    11:00 -5°C° 0.1 mm 3 mps 614 mmHg 73%
    12:00 -4°C° 0.1 mm 3 mps 614 mmHg 69%
    13:00 -4°C° 0.1 mm 3 mps 614 mmHg 70%
    14:00 -5°C° 0.1 mm 3 mps 614 mmHg 70%
    15:00 -5°C° 0.1 mm 3 mps 614 mmHg 70%
    16:00 -5°C° 0 mm 2 mps 613 mmHg 76%
    17:00 -7°C° 0 mm 2 mps 613 mmHg 83%
    18:00 -8°C° 0 mm 2 mps 613 mmHg 89%
    19:00 -9°C° 0 mm 2 mps 613 mmHg 89%
    20:00 -9°C° 0 mm 2 mps 612 mmHg 88%
    21:00 -10°C° 0 mm 2 mps 612 mmHg 88%
    22:00 -10°C° 0 mm 2 mps 612 mmHg 85%
    23:00 -10°C° 0 mm 2 mps 612 mmHg 81%

    Tomorrow, 22 January, Tuesday

    Time Temperature Precipitation Wind Pressure Humidity
    00:00 -10°C° 0 mm 2 mps 612 mmHg 78%
    01:00 -12°C° 0 mm 2 mps 611 mmHg 72%
    02:00 -12°C° 0 mm 2 mps 611 mmHg 67%
    03:00 -12°C° 0 mm 2 mps 610 mmHg 62%
    04:00 -12°C° 0 mm 2 mps 610 mmHg 59%
    05:00 -12°C° 0 mm 2 mps 610 mmHg 55%
    06:00 -12°C° 0 mm 2 mps 609 mmHg 52%
    07:00 -8°C° 0 mm 1 mps 610 mmHg 50%
    08:00 -7°C° 0 mm 1 mps 610 mmHg 48%
    09:00 -4°C° 0 mm 1 mps 611 mmHg 45%
    10:00 -3°C° 0 mm 1 mps 610 mmHg 42%
    11:00 -1°C° 0 mm 1 mps 610 mmHg 40%
    12:00 +1°C° 0 mm 1 mps 610 mmHg 37%
    13:00 0°C° 0.2 mm 1 mps 609 mmHg 47%
    14:00 -1°C° 0.2 mm 1 mps 608 mmHg 58%
    15:00 -1°C° 0.2 mm 1 mps 607 mmHg 69%
    16:00 -4°C° 0.6 mm 2 mps 607 mmHg 75%
    17:00 -5°C° 0.6 mm 2 mps 606 mmHg 81%
    18:00 -7°C° 0.6 mm 3 mps 606 mmHg 86%
    19:00 -7°C° 0.2 mm 3 mps 606 mmHg 87%
    20:00 -6°C° 0.2 mm 2 mps 605 mmHg 87%
    21:00 -6°C° 0.2 mm 2 mps 605 mmHg 88%
    22:00 -6°C° 0.6 mm 2 mps 605 mmHg 89%
    23:00 -7°C° 0.6 mm 3 mps 605 mmHg 90%

    Day after tomorrow, 23 January, Wednesday

    Time Temperature Precipitation Wind Pressure Humidity
    00:00 -7°C° 0.6 mm 3 mps 605 mmHg 91%
    01:00 -8°C° 0.7 mm 3 mps 604 mmHg 90%
    02:00 -8°C° 0.7 mm 3 mps 604 mmHg 90%
    03:00 -7°C° 0.7 mm 2 mps 604 mmHg 90%
    04:00 -8°C° 1.2 mm 2 mps 603 mmHg 92%
    05:00 -7°C° 1.2 mm 1 mps 602 mmHg 93%
    06:00 -7°C° 1.2 mm 1 mps 601 mmHg 95%
    07:00 -8°C° 1.8 mm 2 mps 601 mmHg 95%
    08:00 -8°C° 1.8 mm 3 mps 601 mmHg 94%
    09:00 -8°C° 1.8 mm 3 mps 602 mmHg 94%
    10:00 -10°C° 1.1 mm 4 mps 601 mmHg 93%
    11:00 -12°C° 1.1 mm 6 mps 601 mmHg 91%
    12:00 -13°C° 1.1 mm 7 mps 601 mmHg 90%
    13:00 -14°C° 0.5 mm 7 mps 601 mmHg 90%
    14:00 -15°C° 0.5 mm 8 mps 601 mmHg 90%
    15:00 -15°C° 0.5 mm 8 mps 601 mmHg 90%
    16:00 -15°C° 0.6 mm 8 mps 601 mmHg 91%
    17:00 -16°C° 0.6 mm 8 mps 601 mmHg 92%
    18:00 -16°C° 0.6 mm 8 mps 602 mmHg 93%
    19:00 -15°C° 0.9 mm 7 mps 602 mmHg 93%
    20:00 -15°C° 0.9 mm 7 mps 603 mmHg 93%
    21:00 -15°C° 0.9 mm 7 mps 603 mmHg 93%
    22:00 -15°C° 0.6 mm 7 mps 603 mmHg 93%
    23:00 -15°C° 0.6 mm 7 mps 604 mmHg 93%

    24 January, Thursday

    Time Temperature Precipitation Wind Pressure Humidity
    00:00 -15°C° 0.6 mm 6 mps 604 mmHg 93%
    01:00 -17°C° 0.3 mm 7 mps 604 mmHg 92%
    02:00 -17°C° 0.3 mm 7 mps 604 mmHg 91%
    03:00 -17°C° 0.3 mm 7 mps 603 mmHg 91%
    04:00 -17°C° 0.1 mm 7 mps 604 mmHg 90%
    05:00 -17°C° 0.1 mm 7 mps 604 mmHg 89%
    06:00 -17°C° 0.1 mm 7 mps 604 mmHg 88%
    07:00 -17°C° 0.1 mm 7 mps 605 mmHg 87%
    08:00 -15°C° 0.1 mm 7 mps 605 mmHg 86%
    09:00 -15°C° 0.1 mm 7 mps 606 mmHg 86%
    10:00 -14°C° 0 mm 6 mps 607 mmHg 83%
    11:00 -12°C° 0 mm 6 mps 607 mmHg 81%
    12:00 -11°C° 0 mm 6 mps 608 mmHg 79%
    13:00 -11°C° 0 mm 6 mps 608 mmHg 79%
    14:00 -11°C° 0 mm 5 mps 608 mmHg 80%
    15:00 -11°C° 0 mm 5 mps 609 mmHg 80%
    16:00 -13°C° 0 mm 5 mps 609 mmHg 82%
    17:00 -14°C° 0 mm 5 mps 609 mmHg 83%
    18:00 -15°C° 0 mm 4 mps 609 mmHg 85%
    19:00 -15°C° 0 mm 4 mps 609 mmHg 85%
    20:00 -15°C° 0 mm 4 mps 610 mmHg 85%
    21:00 -15°C° 0 mm 4 mps 610 mmHg 85%
    22:00 -15°C° 0 mm 4 mps 610 mmHg 84%
    23:00 -16°C° 0 mm 4 mps 610 mmHg 83%

    25 January, Friday

    Time Temperature Precipitation Wind Pressure Humidity
    00:00 -16°C° 0 mm 4 mps 610 mmHg 82%
    01:00 -16°C° 0 mm 4 mps 610 mmHg 82%
    02:00 -15°C° 0 mm 3 mps 610 mmHg 82%
    03:00 -16°C° 0 mm 3 mps 610 mmHg 83%
    04:00 -16°C° 0 mm 3 mps 610 mmHg 82%
    05:00 -16°C° 0 mm 3 mps 610 mmHg 81%
    06:00 -16°C° 0 mm 3 mps 611 mmHg 81%
    07:00 -14°C° 0 mm 3 mps 612 mmHg 78%
    08:00 -13°C° 0 mm 3 mps 613 mmHg 76%
    09:00 -10°C° 0 mm 3 mps 614 mmHg 73%
    10:00 -10°C° 0 mm 4 mps 614 mmHg 71%
    11:00 -8°C° 0 mm 4 mps 615 mmHg 69%
    12:00 -7°C° 0 mm 4 mps 616 mmHg 67%
    13:00 -5°C° 0 mm 4 mps 616 mmHg 71%
    14:00 -5°C° 0 mm 4 mps 615 mmHg 76%
    15:00 -5°C° 0 mm 4 mps 615 mmHg 80%
    16:00 -5°C° 0.1 mm 3 mps 615 mmHg 84%
    17:00 -5°C° 0.1 mm 3 mps 615 mmHg 88%
    18:00 -5°C° 0.1 mm 3 mps 615 mmHg 92%
    19:00 -5°C° 0.1 mm 3 mps 616 mmHg 92%
    20:00 -5°C° 0.1 mm 3 mps 616 mmHg 93%
    21:00 -4°C° 0.1 mm 3 mps 616 mmHg 93%
    22:00 -4°C° 0.1 mm 3 mps 616 mmHg 94%
    23:00 -4°C° 0.1 mm 3 mps 616 mmHg 94%

    26 January, Saturday

    Time Temperature Precipitation Wind Pressure Humidity
    00:00 -4°C° 0.1 mm 3 mps 616 mmHg 94%
    01:00 -3°C° 0 mm 2 mps 616 mmHg 94%
    02:00 -3°C° 0 mm 2 mps 616 mmHg 94%
    03:00 -4°C° 0 mm 2 mps 615 mmHg 94%
    04:00 -5°C° 0 mm 2 mps 615 mmHg 93%
    05:00 -6°C° 0 mm 2 mps 614 mmHg 93%
    06:00 -6°C° 0 mm 2 mps 614 mmHg 92%
    07:00 -5°C° 0 mm 2 mps 614 mmHg 90%
    08:00 -4°C° 0 mm 2 mps 615 mmHg 87%
    09:00 -3°C° 0 mm 2 mps 615 mmHg 85%
    10:00 0°C° 0 mm 1 mps 615 mmHg 86%
    11:00 +2°C° 0 mm 1 mps 615 mmHg 86%
    12:00 +3°C° 0 mm 1 mps 616 mmHg 87%
    13:00 +3°C° 0 mm 1 mps 615 mmHg 89%
    14:00 +3°C° 0 mm 1 mps 614 mmHg 90%
    15:00 +3°C° 0 mm 1 mps 614 mmHg 92%
    16:00 +1°C° 0 mm 1 mps 613 mmHg 94%
    17:00 0°C° 0 mm 1 mps 612 mmHg 95%
    18:00 -1°C° 0 mm 1 mps 612 mmHg 97%
    19:00 -1°C° 0 mm 1 mps 611 mmHg 96%
    20:00 -1°C° 0 mm 1 mps 611 mmHg 96%
    21:00 -2°C° 0 mm 1 mps 611 mmHg 95%
    22:00 -2°C° 0.2 mm 1 mps 610 mmHg 95%
    23:00 -4°C° 0.2 mm 2 mps 610 mmHg 95%
    Show more